Regional Weather Roundup
Issued by NWS Albany, NY

Home | Current Version | Previous Version | Graphics & Text | Print | Product List | Glossary Off
Versions: 1 2 3 4 5 6 7 8 9 10 11 12 13 14 15 16 17 18 19 20 21 22 23 24 25 26 27 28

000
ASUS41 KALY 230410
RWRALY

NEW YORK STATE HOURLY WEATHER ROUNDUP
NATIONAL WEATHER SERVICE ALBANY NY
1100 PM EST WED NOV 22 2017

NOTE: "FAIR" INDICATES FEW OR NO CLOUDS BELOW 12,000 FEET WITH NO
SIGNIFICANT WEATHER AND/OR NO OBSTRUCTIONS TO VISIBILITY.

NYZ032-033-038>043-046>054-057>066-NYZ062>081-082-084-230500-
EAST


CITY           SKY/WX    TMP DP  RH WIND       PRES   REMARKS
ALBANY         CLOUDY    35  22  58 NW14      30.08R WCI  26
GLENS FALLS    CLEAR     30  19  63 NW9       30.05F WCI  22
POUGHKEEPSIE   CLOUDY    35  21  56 W8        30.06R WCI  29
NEWBURGH       MOCLDY    34  23  64 NW14      30.07R WCI  24
MONTGOMERY     CLOUDY    34  20  56 NW14      30.07R WCI  25
WHITE PLAINS   CLEAR     35  21  56 NW8G21    30.03R WCI  29
ISLIP          PTCLDY    38  25  59 NW12      30.04R WCI  30
NEW YORK CITY  CLEAR     38  23  55 NW20G28   30.07R WCI  28
CENTRAL PARK   CLEAR     36  20  52 NW10G18   30.10R WCI  28
$$

NYZ005>009-017-018-044>046-055-056-230500-
CENTRAL


CITY           SKY/WX    TMP DP  RH WIND       PRES   REMARKS
FULTON         CLOUDY    30  20  66 NW9       30.16F WCI  22
SYRACUSE       FLURRIES  29  19  66 W13       30.16S WCI  19
ROME           CLOUDY    29  23  78 W15G23    30.14S WCI  18
ELMIRA         CLOUDY    28  17  63 CALM      30.15F
BINGHAMTON     CLOUDY    26  17  68 NW10      30.08S WCI  16
MONTICELLO     CLOUDY    27  18  69 NW14G23   30.06R WCI  16
$$

NYZ026>034-041>043-087-230500-
NORTH


CITY           SKY/WX    TMP DP  RH WIND       PRES   REMARKS
WATERTOWN      CLOUDY    26  19  74 N8        30.17S WCI  18
FORT DRUM      NOT AVBL
OGDENSBURG     FAIR      22  17  79 NW8       30.17S WCI  13
MASSENA        CLEAR     23  15  71 NW10      30.17R WCI  12
SARANAC LAKE   LGT SNOW  19  16  88 W8        30.02S FOG     WCI   9
PLATTSBURGH    CLOUDY    28  16  60 NW8G20    30.09S WCI  20
$$

NYZ001>004-010>016-019>021-085-230500-
WEST


CITY           SKY/WX    TMP DP  RH WIND       PRES   REMARKS
NIAGARA FALLS  CLOUDY    29  18  63 CALM      30.18F
BUFFALO        MOCLDY    27  17  66 SW5       30.18F WCI  22
DUNKIRK        MOCLDY    30  19  63 N10       30.20F WCI  21
JAMESTOWN      CLOUDY    25  20  81 N6        30.14F WCI  18
WELLSVILLE     CLOUDY    25  16  68 NW7       30.11F WCI  17
ROCHESTER      CLOUDY    30  20  66 W9        30.18F WCI  22
PENN YAN       CLOUDY    29  17  61 NW8       30.15F WCI  21
$$

             KEY
       WCI = WIND CHILL INDEX
       VSB = VISIBILITY
       HX  = HEAT INDEX
$$




USA.gov is the U.S. government's official web portal to all federal, state and local government web resources and services.